Home > Weather > Owen Sound > Past weeks

Flag for Canada Weather for the Past 2 Weeks in Owen Sound, Ontario, Canada

Now
32 °F

Clear.


Feels Like: 32 °F
Forecast: 29 / 57 °F
Wind: 2 mph from Southeast

Location: Wiarton

Current Time: Apr 30, 2016 at 5:23:51 AM

Latest Report: Apr 30, 2016 at 4:00 AM


Visibility: 15 mi

Pressure: 30.19 "Hg

Humidity: 87%

Dew Point: 28 °F

Location of Owen SoundLocation

Historic Weather in Owen Sound — Graph

°F

Owen Sound Temperature Yesterday

Maximum temperature yesterday: 52 °F (at 6:00 PM)
Minimum temperature yesterday: 34 °F (at 4:00 AM)
Average temperature yesterday: 43 °F

High & Low Weather Summary for the Past Weeks

 TemperatureHumidityPressure
High68 °F (Apr 17, 2:00 PM)100% (Apr 19, 12:00 AM)30.50 "Hg (Apr 19, 12:00 AM)
Low28 °F (Apr 27, 2:00 AM)24% (Apr 19, 4:00 PM)29.77 "Hg (Apr 26, 4:00 AM)
Average44 °F65%30.17 "Hg
* Reported Apr 15 4:00 AM — Apr 30 4:00 AM, Owen Sound, Weather by CustomWeather, © 2016

Note: Actual official high and low records may vary slightly from our data, if they occured in-between our weather recording intervals... More about our weather records

Advertising

Owen Sound Weather History for the Previous 24 Hours

Scroll right to see more
 ConditionsComfort  
Time TempWeatherWind HumidityBarometerVisibility
4:00 AM
Sat, Apr 30
32 °FClear.2 mph87%30.19 "Hg15 mi
3:00 AM30 °FClear.3 mph93%30.19 "Hg15 mi
2:00 AM30 °FClear.2 mph93%30.20 "Hg15 mi
1:00 AM32 °FClear.2 mph87%30.20 "Hg15 mi
12:00 AM36 °FClear.No wind87%30.20 "Hg15 mi
11:00 PM
Fri, Apr 29
37 °FClear.2 mph81%30.20 "Hg15 mi
10:00 PM41 °FClear.2 mph57%30.18 "Hg15 mi
9:00 PM45 °FPassing clouds.2 mph46%30.16 "Hg15 mi
8:00 PM48 °FPassing clouds.9 mph40%30.15 "Hg15 mi
7:00 PM52 °FPassing clouds.5 mph35%30.14 "Hg15 mi
6:00 PM52 °FPassing clouds.6 mph35%30.14 "Hg15 mi
5:00 PM50 °FScattered clouds.8 mph35%30.12 "Hg15 mi
4:00 PM48 °FPartly sunny.8 mph37%30.13 "Hg15 mi
3:00 PM50 °FBroken clouds.7 mph40%30.12 "Hg15 mi
2:00 PM48 °FMore clouds than sun.13 mph37%30.13 "Hg15 mi
1:00 PM48 °FOvercast.10 mph43%30.14 "Hg15 mi
12:00 PM48 °FOvercast.9 mph54%30.14 "Hg15 mi
11:00 AM45 °FMostly cloudy.6 mph57%30.14 "Hg15 mi
10:00 AM46 °FMostly cloudy.7 mph46%30.14 "Hg15 mi
9:00 AM45 °FCloudy.6 mph49%30.14 "Hg15 mi
8:00 AM43 °FOvercast.5 mph57%30.12 "Hg15 mi
7:00 AM36 °FPartly cloudy.2 mph81%30.11 "Hg15 mi
6:00 AM36 °FPartly cloudy.No wind81%30.11 "Hg15 mi
5:00 AM36 °FPassing clouds.No wind81%30.09 "Hg15 mi
Weather by CustomWeather, © 2016

See weather overviewHow to use our weather pages